Location: Unspecified
(0.0000°N, 0.0000°E)
Time: 09:38:02

STARS - Pass Details

Date: 15 December 2017
Orbit: 625 x 641 km, 98.3° (Epoch: 19 March)

Event Time Altitude Azimuth Distance (km) Brightness Sun altitude
Rises 04:47:58 0° 141° (SE) 2,940 ? -15.4°
Reaches altitude 10° 04:50:43 10° 123° (ESE) 2,026 ? -14.8°
Maximum altitude 04:53:49 19° 78° (ENE) 1,519 ? -14.0°
Drops below altitude 10° 04:56:54 10° 33° (NNE) 2,013 ? -13.3°
Sets 04:59:37 0° 15° (NNE) 2,914 ? -12.7°
